Location: Asheville, NC
(35.6000°N, 82.5500°W)
Time: 13:54:30
(UTC-04:00)

Vanguard 2 Rocket - Pass Details

Date: 09 March 2018
Orbit: 553 x 3328 km, 32.9° (Epoch: 18 June)

Event Time Altitude Azimuth Distance (km) Brightness Sun altitude
Rises 17:12:30 0° 218° (SW) 2,703 10.3 15.1°
Reaches altitude 10° 17:14:57 10° 201° (SSW) 1,859 9.1 14.7°
Maximum altitude 17:18:06 22° 149° (SSE) 1,405 7.8 14.1°
Drops below altitude 10° 17:21:59 10° 99° (E) 2,330 8.5 13.3°
Sets 17:25:30 0° 85° (E) 3,634 9.3 12.6°
